Lake Travis Weather Center

Moon Phase Calendar



Lake Travis Water Level
Online Cameras

 


      

Current Conditions in Lago Vista
5/17/2022 4:47:55 PM

96°F
Feels Like 98
Clouds
Humidity
36%
Pressure
29.91"
Wind
18 mph (SSE)
Dew Point
64°F
UV Index
3/10 (Moderate)
Visibility
6 mi

Hourly Forecast

Date & Time Tue, May 17
4:00 PM
Tue, May 17
5:00 PM
Tue, May 17
6:00 PM
Tue, May 17
7:00 PM
Tue, May 17
8:00 PM
Tue, May 17
9:00 PM
Tue, May 17
10:00 PM
Tue, May 17
11:00 PM
Wed, May 18
12:00 AM
Wed, May 18
1:00 AM
Wed, May 18
2:00 AM
Wed, May 18
3:00 AM
Wed, May 18
4:00 AM
Wed, May 18
5:00 AM
Wed, May 18
6:00 AM
Wed, May 18
7:00 AM
Wed, May 18
8:00 AM
Wed, May 18
9:00 AM
Wed, May 18
10:00 AM
Wed, May 18
11:00 AM
Wed, May 18
12:00 PM
Wed, May 18
1:00 PM
Wed, May 18
2:00 PM
Wed, May 18
3:00 PM
Wed, May 18
4:00 PM
Wed, May 18
5:00 PM
Wed, May 18
6:00 PM
Wed, May 18
7:00 PM
Wed, May 18
8:00 PM
Wed, May 18
9:00 PM
Wed, May 18
10:00 PM
Wed, May 18
11:00 PM
Thu, May 19
12:00 AM
Thu, May 19
1:00 AM
Thu, May 19
2:00 AM
Thu, May 19
3:00 AM
Thu, May 19
4:00 AM
Thu, May 19
5:00 AM
Thu, May 19
6:00 AM
Thu, May 19
7:00 AM
Thu, May 19
8:00 AM
Thu, May 19
9:00 AM
Thu, May 19
10:00 AM
Thu, May 19
11:00 AM
Thu, May 19
12:00 PM
Thu, May 19
1:00 PM
Thu, May 19
2:00 PM
Thu, May 19
3:00 PM
Condition
Clouds

Clouds

Clouds

Clouds

Clouds

Clouds

Clouds

Clouds

Clouds

Clouds

Clouds

Clouds

Clouds

Clouds

Clouds

Clouds

Clouds

Clouds

Clouds

Clouds

Clouds

Clouds

Clouds

Clouds

Clouds

Clouds

Clouds

Clouds

Clear

Clear

Clear

Clear

Clear

Clouds

Clouds

Clouds

Clouds

Clouds

Clouds

Clouds

Clouds

Clouds

Clouds

Clear

Clear

Clear

Clear

Clear
Temperature 97°F96°F96°F95°F93°F88°F82°F78°F76°F73°F72°F70°F69°F69°F69°F69°F72°F77°F83°F88°F92°F96°F98°F100°F101°F100°F100°F98°F90°F85°F81°F78°F75°F73°F72°F71°F70°F70°F69°F69°F72°F77°F83°F87°F92°F95°F98°F100°F
Feels Like 98°F98°F97°F95°F91°F86°F82°F78°F76°F74°F72°F71°F70°F70°F70°F70°F73°F78°F82°F86°F89°F93°F95°F96°F97°F96°F96°F94°F88°F84°F81°F77°F75°F74°F73°F72°F71°F71°F70°F70°F73°F78°F83°F86°F90°F93°F96°F97°F
Cloudiness 93%92%92%93%97%98%80%63%51%56%98%77%69%70%66%65%39%55%70%78%82%82%92%95%96%96%96%83%0%0%0%2%3%18%87%59%56%66%57%50%32%17%11%8%7%6%0%0%
Visibility 6 mi6 mi6 mi6 mi6 mi6 mi6 mi6 mi6 mi6 mi6 mi6 mi6 mi6 mi6 mi6 mi6 mi6 mi6 mi6 mi6 mi6 mi6 mi6 mi6 mi6 mi6 mi6 mi6 mi6 mi6 mi6 mi6 mi6 mi6 mi6 mi6 mi6 mi6 mi6 mi6 mi6 mi6 mi6 mi6 mi6 mi6 mi6 mi
Precipitation 0%0%0%0%0%0%0%0%0%0%0%0%0%0%0%0%0%0%0%0%0%0%0%0%0%0%0%0%0%0%0%0%0%0%0%0%0%0%0%0%0%0%0%0%0%0%0%0%
Humidity 32%36%32%30%30%34%41%50%59%68%74%80%83%86%86%85%77%59%42%32%26%22%19%17%16%16%16%19%28%35%43%53%66%73%74%77%81%85%90%91%80%62%47%36%29%25%22%20%
Dew Point 62°F64°F62°F59°F57°F56°F56°F58°F60°F62°F63°F64°F64°F64°F64°F65°F65°F62°F57°F54°F53°F51°F49°F48°F47°F46°F46°F48°F53°F54°F56°F59°F62°F64°F63°F63°F64°F65°F66°F66°F66°F63°F60°F57°F55°F54°F52°F52°F
Pressure 29.88"29.91"29.88"29.85"29.85"29.85"29.85"29.88"29.88"29.88"29.88"29.88"29.88"29.88"29.88"29.88"29.88"29.88"29.88"29.88"29.88"29.83"29.8"29.77"29.74"29.74"29.74"29.74"29.74"29.8"29.8"29.83"29.83"29.83"29.83"29.8"29.8"29.8"29.8"29.83"29.83"29.83"29.83"29.8"29.77"29.74"29.71"29.68"
Wind Speed 15.5 mph15.7 mph14.9 mph12.4 mph15.8 mph17.2 mph16.9 mph15.8 mph14.9 mph14 mph13.1 mph11.8 mph10.7 mph12.2 mph12.9 mph12.9 mph15.2 mph17.4 mph16.7 mph17.3 mph18.3 mph18.8 mph18.3 mph17.5 mph16.3 mph14.7 mph14.1 mph14.7 mph17.5 mph17.6 mph16.1 mph16.2 mph16.6 mph16.9 mph16.2 mph14.4 mph13.3 mph14.2 mph13.3 mph12.7 mph13.9 mph15.7 mph16 mph16.4 mph16.5 mph16.4 mph16 mph15.9 mph
Wind
Direction
170°
S
170°
S
168°
SSE
149°
SSE
148°
SSE
154°
SSE
160°
SSE
165°
SSE
165°
SSE
173°
S
179°
S
189°
S
193°
SSW
193°
SSW
189°
S
190°
S
186°
S
189°
S
190°
S
189°
S
188°
S
189°
S
190°
S
191°
S
186°
S
183°
S
178°
S
166°
SSE
157°
SSE
159°
SSE
163°
SSE
168°
SSE
172°
S
179°
S
185°
S
190°
S
191°
S
192°
SSW
187°
S
181°
S
181°
S
183°
S
185°
S
184°
S
180°
S
178°
S
180°
S
182°
S

Daily Forecast

Date High Low Precip. Humidity
Today
May 17

Clouds
97 °F
69 °F
0%
25%
Wednesday
May 18

Clouds
101 °F
69 °F
0%
22%
Thursday
May 19

Clear
101 °F
69 °F
0%
25%
Friday
May 20

Rain
103 °F
70 °F
95%
34%
Saturday
May 21

Rain
94 °F
67 °F
100%
45%
Sunday
May 22

Rain
79 °F
57 °F
100%
55%
Monday
May 23

Rain
80 °F
61 °F
60%
64%
Tuesday
May 24

Rain
84 °F
67 °F
100%
55%
Wednesday
May 25

Clouds
92 °F
72 °F
0%
45%
Thursday
May 26

Rain
96 °F
72 °F
59%
43%
Friday
May 27

Rain
82 °F
63 °F
100%
26%
Saturday
May 28

Clear
85 °F
57 °F
0%
27%
Sunday
May 29

Clouds
92 °F
60 °F
0%
24%
Monday
May 30

Clouds
95 °F
64 °F
0%
27%
Tuesday
May 31

Clouds
97 °F
68 °F
0%
34%
Wednesday
Jun 1

Rain
98 °F
71 °F
34%
46%

Temperature 8-14 Day Outlook



Precipitation 8-14 Day Outlook




Quick Links
Lake Travis News
Lake Travis Photos
Lake Travis Videos




About Us
Contact Us
Site Map
Search Site
Advertise With Us
   
Travis.USLakes.info
THE LAKE TRAVIS WEBSITE

Copyright 2022, Lakes Online
Privacy    |    Legal